Regional Weather Roundup
Issued by NWS New Orleans/Baton Rouge, LA

Home | Current Version | Previous Version | Text Only | Print | Product List | Glossary On
Versions: 1 2 3 4 5 6 7 8 9 10 11 12 13 14 15 16 17 18 19 20 21 22 23 24 25 26 27 28 29 30 31 32 33 34 35 36 37 38 39 40 41 42 43 44 45 46 47 48 49 50
326
ASUS44 KLIX 231905
RWRLIX
NEW ORLEANS REGIONAL WEATHER ROUNDUP
NATIONAL WEATHER SERVICE NEW ORLEANS LA
100 PM CST SUN NOV 23 2014

NOTE: "FAIR" INDICATES FEW OR NO CLOUDS BELOW 12,000 FEET WITH NO
      SIGNIFICANT WEATHER AND/OR OBSTRUCTIONS TO VISIBILITY.
      SKY/WX - SKY CONDITION AND SIGNIFICANT WEATHER.
      TMP - AIR TEMPERATURE.     DP    - DEWPOINT TEMPERATURE.
      RH  - RELATIVE HUMIDITY.   PRES  - PRESSURE.
      HI  - HEAT INDEX.          WCI   - WIND CHILL INDEX.

*  THESE STATIONS ARE NOT NWS OR FAA STATIONS AND ARE NOT UNDER
   NWS QUALITY CONTROL.

LAZ038-040-048-061>063-065>067-069-232000-
SOUTHEAST LOUISIANA

CITY           SKY/WX    TMP DP  RH WIND       PRES   REMARKS
N.O. AUDUBON   NOT AVBL
N.O. INTL ARPT PTSUNNY   72  60  66 SW21G28   29.66F
N.O. LAKEFRONT MOSUNNY   72  61  68 SW16      29.66F
N.O. DOWNTOWN* MOCLDY    72  61  68 S16G23    29.67F
SLIDELL        MOSUNNY   72  61  68 SW10G17   29.66F
BATON ROUGE    PTSUNNY   74  61  63 SW20G30   29.61F
BOOTHVILLE     MOSUNNY   68  64  87 SW20G28   29.71S
BELLE CHASSE   PTSUNNY   72  61  68 SW18G29   29.67F
BOGALUSA*        N/A     72  60  66 SW15G23   29.64F
NEW ROADS*     MOCLDY    73  58  60 SW15      29.60F
GONZALES*      MOCLDY    72  62  71 SW15G23   29.64F
HAMMOND*       PTSUNNY   72  57  60 SW17G23   29.64F
HOUMA*         PTSUNNY   72  63  73 SW17G25   29.67F
PORT FOURCHON* CLEAR     72  64  78 SW16G26   29.72F

$$

MSZ070-080>082-232000-
SOUTHERN MISSISSIPPI

CITY           SKY/WX    TMP DP  RH WIND       PRES   REMARKS
MCCOMB         CLOUDY    67  58  72 SW16G26   29.59F
GULFPORT       PTSUNNY   64  60  87 SW9G22    29.68S
BILOXI         CLOUDY    63  61  92 SW17G24   29.68S
PASCAGOULA     CLOUDY    67  61  81 SW10G22   29.69R
STENNIS ARPT*  PTSUNNY   70  59  68 MISG      29.68F

$$

COASTAL OBSERVATIONS
LAKE AND NEARSHORE STATIONS

STATION/POSITION TIME  TEMP    WIND        PRES    WAVE
                       AIR SEA DIR/SP/G            HT/PER
                 (UTC) (F)     (DEG/KT/KT) (MB)    (FT/S)
PASCAGOULA       1900   65     210/ 23/ 28 1005.0
WAVELAND YACHT   1900   66     230/ 13/ 20 1004.2
GRAND ISLE       1900   69 64  230/ 16/ 21 1005.9
SOUTHWEST PASS   1900   68 71              1006.6
NEW CANAL        1900   72 56  230/ 11/ 20 1004.8
SHELL BEACH      1900   68 53  220/ 19/ 24 1004.8

OFFSHORE STATIONS

STATION/POSITION TIME  TEMP    WIND        PRES    WAVE
                       AIR SEA DIR/SP/G            HT/PER
                 (UTC) (F)     (DEG/KT/KT) (MB)    (FT/S)
64 S DAUPHIN ISL 1802   68 72  240/ 29/ 35 1007.5    8/ 6

$$




USA.gov is the U.S. government's official web portal to all federal, state and local government web resources and services.